Weather in Lositsy

Russia / Pskov Oblast     58°32′43″N   28°43′32″E
temp.,
°C
wind,
m/s
gust,
m/s
humid.,
%
clouds,
%
prec.,
mm/h
press.,
hPa
HPBL,
m
29 july, thu
thu2900:00+17wsw229489 0.0 100727
03:00+16sw2495100 0.0 100762
06:00+16wsw2797100 0.0 1006169
09:00+20wsw368294 0.0 1005432
12:00+26wsw474397 0.0 10041787
15:00+24wsw4654100 0.0 10031329
18:00+24wsw375536 0.1 10021203
21:00+21wsw276997 0.1 1002196
30 july, fri
fri3000:00+17wsw29845 0.0 1003247
03:00+15sw29945 0.0 1003228
06:00+14sw3109112 0.0 1003334
09:00+18sw48645 0.0 1003958
12:00+22sw6104281 0.0 10022411
15:00+22sw4947100 0.0 10012127
18:00+20sw3852100 0.0 1000922
21:00+18ssw4115393 0.0 998640
31 july, sat
sat3100:00+16ssw51375100 0.4 9961320
03:00+14sw51296100 2.0 996875
06:00+14sw4129612 0.8 996638
09:00+17wsw612840 1.1 9971125
12:00+22w610549 0.3 9981664
15:00+24wnw58410 0.4 10002073
18:00+24w49416 0.0 10012050
21:00+19wsw397510 0.2 1002378
1 august, sun
sun100:00+15sw399687 0.0 1003192
03:00+15ssw2697100 0.0 1002119
06:00+16ssw31190100 0.2 1002349
09:00+18ssw5109258 1.1 1000732
12:00+22sw7115418 0.3 10001771
15:00+24wsw7114597 0.6 10002246
18:00+23wsw5104670 0.0 10012328
21:00+19w49610 0.1 1003725
2 august, mon
mon200:00+14ssw398527 0.0 1003235
03:00+14sw41276100 0.0 1003550
06:00+14sw4117827 0.0 1003510
09:00+16wsw487199 0.0 1003667
12:00+19w466569 0.1 10041119
15:00+20w3560100 0.4 10041178
18:00+18wnw2364100 0.1 1004442
21:00+16nnw2669100 0.1 1004289